Regional Weather Roundup
Issued by NWS

Home | Current Version | Previous Version | Graphics & Text | Print | Product List | Glossary On
Versions: 1 2 3 4 5 6 7 8 9 10 11 12 13 14 15 16 17 18 19 20 21 22 23 24 25 26 27 28 29 30 31 32 33 34 35 36 37 38 39 40 41 42 43 44 45 46 47 48 49 50
000
ASUS43 KMKX 251111
RWRWI

WISCONSIN REGIONAL WEATHER ROUNDUP
NATIONAL WEATHER SERVICE MILWAUKEE/SULLIVAN WI
500 AM CST THU DEC 25 2014

NOTE: "FAIR" INDICATES FEW OR NO CLOUDS BELOW 12,000 FEET WITH NO
SIGNIFICANT WEATHER AND/OR OBSTRUCTIONS TO VISIBILITY.

WIZ001-002-006>008-014>016-023>028-251200-
NORTHWEST WISCONSIN

CITY           SKY/WX    TMP DP  RH WIND       PRES   REMARKS
SUPERIOR ARPT  CLOUDY    32  29  88 SW8       29.55S WCI  25
ASHLAND        CLOUDY    32  28  85 SW12      29.57R WCI  23
HAYWARD        CLOUDY    31  26  82 SW8       29.58R WCI  23
SIREN          CLOUDY    31  28  90 SW7       29.59R WCI  24
CUMBERLAND     CLOUDY    30  28  93 SW12      29.59S WCI  21
RICE LAKE      CLOUDY    31  28  88 S8        29.62S WCI  24
CHETEK         CLOUDY    31  28  89 S8        29.62S WCI  24
LADYSMITH      CLOUDY    32  29  90 SW10      29.63R WCI  23
EAU CLAIRE     CLOUDY    31  26  82 SW10      29.65R WCI  22
MENOMONIE      CLOUDY    32  29  90 SW10      29.65S WCI  23
NEW RICHMOND   CLOUDY    30  29  96 S9        29.62S WCI  22
OSCEOLA        CLOUDY    31  31  98 S10       29.64S WCI  23
$$

WIZ003>005-009-010-017-018-251200-
NORTH CENTRAL WISCONSIN

CITY           SKY/WX    TMP DP  RH WIND       PRES   REMARKS
MANITOWISH WTR CLOUDY    29  29  99 SW8       29.55R WCI  21
ARBOR VITAE    CLOUDY    32  29  90 W7        29.56R WCI  25
WOODRUFF       CLOUDY    32  29  90 W7        29.56R WCI  25
RHINELANDER    CLOUDY    29  27  92 W9        29.57R WCI  20
EAGLE RIVER    CLOUDY    30  28  94 W10       29.56R WCI  21
LAND O LAKES   CLOUDY    30  28  92 SW6       29.55R WCI  24
PHILLIPS       CLOUDY    30  28  90 SW8       29.58R WCI  23
TOMAHAWK       CLOUDY    30  28  92 W5        29.59S WCI  25
MEDFORD        CLOUDY    30  27  90 SW12      29.62R WCI  20
MERRILL        CLOUDY    32  30  92 W10G16    29.61R WCI  23
$$

WIZ029-030-035-036-043>047-251200-
CENTRAL WISCONSIN

CITY           SKY/WX    TMP DP  RH WIND       PRES   REMARKS
WAUSAU         CLOUDY    32  28  85 W9        29.62R WCI  24
MOSINEE        CLOUDY    32  32 100 SW15G22   29.64R WCI  22
MARSHFIELD     CLOUDY    32  27  81 SW12      29.65R WCI  23
STEVENS POINT  CLOUDY    31  26  83 W10G20    29.66R WCI  22
WAUPACA        CLOUDY    35  31  84 SW10      29.68R WCI  27
WAUTOMA        CLOUDY    34  31  89 SW12      29.69R WCI  25
WISC RAPIDS    CLOUDY    32  27  81 SW10G18   29.69R WCI  24
CAMP DOUGLAS   CLOUDY    32  32 100 W12       29.69R WCI  23
$$

WIZ011>013-019>022-031-037>040-048>050-251200-
NORTHEAST WISCONSIN

CITY           SKY/WX    TMP DP  RH WIND       PRES   REMARKS
ANTIGO         CLOUDY    29  28  93 SW9       29.60R WCI  21
SHAWANO        MOCLDY    32  29  88 SW3       29.65R
OCONTO         CLEAR     31  30  96 W8        29.64R WCI  23
STURGEON BAY   CLOUDY    32  28  86 W14       29.64R WCI  22
GREEN BAY      CLEAR     33  29  85 SW9       29.67R WCI  25
MANITOWOC      CLEAR     32  30  92 W10       29.69R WCI  24
APPLETON       NOT AVBL
CLINTONVILLE   CLOUDY    32  28  86 SW6       29.66R WCI  26
OSHKOSH        CLOUDY    34  28  79 W7        29.69R WCI  28
$$

WIZ032>034-041-042-053>061-251200-
SOUTHWEST WISCONSIN

CITY           SKY/WX    TMP DP  RH WIND       PRES   REMARKS
LA CROSSE      CLOUDY    32  26  78 SW12      29.72R WCI  23
SPARTA         CLOUDY    32  28  85 W7        29.72R WCI  26
VIROQUA        CLOUDY    29  29 100 SW13      29.70R WCI  19
BOSCOBEL       CLOUDY    33  26  75 SW13      29.75R WCI  24
PRAIRIE DU CHI CLOUDY    32  27  81 SW12      29.75R WCI  23
PLATTEVILLE    CLOUDY    31  28  88 SW16      29.76S WCI  20
$$

WIZ056-057-062-063-064-067-068-251200-
SOUTH CENTRAL WISCONSIN

CITY           SKY/WX    TMP DP  RH WIND       PRES   REMARKS
REEDSBURG      CLOUDY    32  28  86 SW10      29.71R WCI  24
BARABOO/DELLS  CLOUDY    32  28  86 SW13      29.71R WCI  22
LONE ROCK      CLOUDY    36  28  73 W9        29.74R WCI  29
MINERAL POINT  CLOUDY    32  30  93 SW14G21   29.74R WCI  22
MADISON        CLOUDY    33  28  81 MISG      29.74R
MIDDLETON      CLOUDY    34  29  83 W13       29.73S WCI  25
WATERTOWN      CLOUDY    33  30  87 SW9       29.74R WCI  26
MONROE         CLOUDY    32  32 100 SW16      29.75R WCI  21
JANESVILLE     CLOUDY    34  30  86 W12G21    29.76R WCI  25
$$

WIZ051-052-058>065-066-070>072-251200-
SOUTHEAST WISCONSIN

CITY           SKY/WX    TMP DP  RH WIND       PRES   REMARKS
MILWAUKEE      CLOUDY    36  27  69 W15G22    29.75R WCI  27
WAUKESHA       CLOUDY    32  28  86 W14G20    29.75R WCI  22
MILWAUKEE/TIMM CLOUDY    34  27  75 W13G21    29.75R WCI  25
RACINE         CLOUDY    35  27  72 W12       29.77R WCI  27
BURLINGTON     CLOUDY    32  28  84 W12G18    29.77R WCI  23
KENOSHA        CLOUDY    35  28  75 W13       29.76R WCI  26
FOND DU LAC    CLOUDY    34  28  79 SW9       29.70R WCI  27
SHEBOYGAN      CLOUDY    34  28  79 W13       29.70R WCI  25
WEST BEND      CLOUDY    34  28  80 SW9       29.71R WCI  26
JUNEAU         CLOUDY    33  29  86 SW14      29.73R WCI  23
$$

LSZ147-162-251200-
LAKE SUPERIOR

STATION/POSITION TIME  TEMP    WIND        PRES    WAVE
                       AIR SEA DIR/SP/G            HT/PER
                 (UTC) (F)     (DEG/KT/KT) (MB)    (FT/S)
DEVILS ISLAND    1100   34     230/ 19/ 23 1000.7R
PORT WING        1040   33     210/  7/  9 1001.0R
SAXON HARBOR     0900   33     190/  4/  7 1001.0R
$$

LMZ867-665-643>646-251200-
LAKE MICHIGAN

STATION/POSITION TIME  TEMP    WIND        PRES    WAVE
                       AIR SEA DIR/SP/G            HT/PER
                 (UTC) (F)     (DEG/KT/KT) (MB)    (FT/S)
CHAMBERS ISLAND  1000   33     230/  6/ 13 1002.0R
NORTHPORT PIER   1000   34     270/  7/ 13 1001.4R
SISTER BAY       1013          290/ 16/ 18   N/A
ALGOMA LAKESHORE 1015          250/ 10/ 14   N/A
KEWAUNEE LAKESHO 1000   34     260/ 12/ 16 1002.6R
SHEBOYGAN LAKESH 1100   36 37  260/ 12/ 15 1006.6R
PORT WASHINGTON  1040   36     260/  7/ 15 1007.1R
MILWAUKEE LAKESH 1000   36     260/ 11/ 14   N/A
KENOSHA   LAKESH 1100   36     250/ 12/ 20 1008.5R
$$

TC  - TEMPERATURE IN CELSIUS
VSB - VISIBILITY IN STATUTE MILES
WCI - WIND CHILL INDEX
HX  - HEAT INDEX



USA.gov is the U.S. government's official web portal to all federal, state and local government web resources and services.